• In United Kingdom
  • List of Countries
  • For 7 days
  • Water Temperature
  • Satellite Maps
  • Weather Map
  • Weather Widgets
  • user-avatar
    Login

    Hourly Weather Batina

    Today, 25 May, Friday

    Time Temperature Precipitation Wind Pressure Humidity
    00:00 +22°C° 0 mm 1 mps 672 mmHg 46%
    01:00 +22°C° 0 mm 1 mps 671 mmHg 46%
    02:00 +21°C° 0 mm 1 mps 671 mmHg 46%
    03:00 +21°C° 0 mm 1 mps 671 mmHg 46%
    04:00 +21°C° 0 mm 1 mps 671 mmHg 44%
    05:00 +21°C° 0 mm 2 mps 671 mmHg 42%
    06:00 +23°C° 0 mm 2 mps 672 mmHg 40%
    07:00 +25°C° 0 mm 2 mps 672 mmHg 35%
    08:00 +26°C° 0 mm 3 mps 673 mmHg 30%
    09:00 +27°C° 0 mm 3 mps 673 mmHg 26%
    10:00 +28°C° 0 mm 4 mps 673 mmHg 24%
    11:00 +29°C° 0 mm 5 mps 673 mmHg 21%
    12:00 +30°C° 0 mm 5 mps 673 mmHg 19%
    13:00 +32°C° 0 mm 6 mps 673 mmHg 18%
    14:00 +32°C° 0 mm 6 mps 672 mmHg 17%
    15:00 +32°C° 0 mm 6 mps 672 mmHg 17%
    16:00 +30°C° 0 mm 5 mps 672 mmHg 19%
    17:00 +29°C° 0 mm 5 mps 671 mmHg 21%
    18:00 +28°C° 0 mm 5 mps 671 mmHg 23%
    19:00 +27°C° 0 mm 4 mps 671 mmHg 26%
    20:00 +26°C° 0 mm 3 mps 671 mmHg 29%
    21:00 +25°C° 0 mm 2 mps 671 mmHg 31%
    22:00 +24°C° 0 mm 2 mps 671 mmHg 32%
    23:00 +24°C° 0 mm 2 mps 671 mmHg 33%

    Tomorrow, 26 May, Saturday

    Time Temperature Precipitation Wind Pressure Humidity
    00:00 +23°C° 0 mm 2 mps 670 mmHg 33%
    01:00 +23°C° 0 mm 2 mps 670 mmHg 34%
    02:00 +23°C° 0 mm 2 mps 670 mmHg 35%
    03:00 +21°C° 0 mm 2 mps 671 mmHg 35%
    04:00 +22°C° 0 mm 3 mps 671 mmHg 35%
    05:00 +24°C° 0 mm 3 mps 671 mmHg 34%
    06:00 +24°C° 0 mm 3 mps 672 mmHg 33%
    07:00 +26°C° 0 mm 5 mps 672 mmHg 29%
    08:00 +28°C° 0 mm 6 mps 673 mmHg 24%
    09:00 +30°C° 0 mm 7 mps 673 mmHg 19%
    10:00 +32°C° 0 mm 7 mps 673 mmHg 18%
    11:00 +33°C° 0 mm 7 mps 673 mmHg 17%
    12:00 +34°C° 0 mm 7 mps 673 mmHg 15%
    13:00 +33°C° 0 mm 7 mps 673 mmHg 16%
    14:00 +33°C° 0 mm 7 mps 673 mmHg 16%
    15:00 +33°C° 0 mm 7 mps 673 mmHg 16%
    16:00 +32°C° 0 mm 6 mps 672 mmHg 19%
    17:00 +30°C° 0 mm 5 mps 672 mmHg 21%
    18:00 +29°C° 0 mm 4 mps 672 mmHg 23%
    19:00 +28°C° 0 mm 4 mps 672 mmHg 24%
    20:00 +28°C° 0 mm 4 mps 673 mmHg 26%
    21:00 +27°C° 0 mm 3 mps 673 mmHg 27%
    22:00 +26°C° 0.1 mm 4 mps 673 mmHg 32%
    23:00 +25°C° 0.1 mm 4 mps 673 mmHg 37%

    Day after tomorrow, 27 May, Sunday

    Time Temperature Precipitation Wind Pressure Humidity
    00:00 +23°C° 0.1 mm 4 mps 673 mmHg 43%
    01:00 +22°C° 0 mm 3 mps 673 mmHg 45%
    02:00 +22°C° 0 mm 3 mps 672 mmHg 47%
    03:00 +21°C° 0 mm 2 mps 672 mmHg 49%
    04:00 +23°C° 0 mm 2 mps 672 mmHg 47%
    05:00 +23°C° 0 mm 2 mps 672 mmHg 44%
    06:00 +24°C° 0 mm 2 mps 672 mmHg 42%
    07:00 +26°C° 0 mm 3 mps 672 mmHg 36%
    08:00 +28°C° 0 mm 4 mps 673 mmHg 29%
    09:00 +30°C° 0 mm 5 mps 674 mmHg 23%
    10:00 +30°C° 0 mm 6 mps 674 mmHg 22%
    11:00 +32°C° 0 mm 6 mps 674 mmHg 21%
    12:00 +33°C° 0 mm 6 mps 674 mmHg 20%
    13:00 +33°C° 0 mm 6 mps 673 mmHg 19%
    14:00 +34°C° 0 mm 6 mps 673 mmHg 18%
    15:00 +34°C° 0 mm 6 mps 673 mmHg 18%
    16:00 +33°C° 0 mm 5 mps 672 mmHg 20%
    17:00 +31°C° 0 mm 3 mps 672 mmHg 23%
    18:00 +31°C° 0 mm 2 mps 672 mmHg 25%
    19:00 +29°C° 0 mm 2 mps 672 mmHg 29%
    20:00 +28°C° 0 mm 2 mps 672 mmHg 33%
    21:00 +26°C° 0 mm 2 mps 672 mmHg 36%
    22:00 +26°C° 0 mm 2 mps 671 mmHg 38%
    23:00 +25°C° 0 mm 3 mps 671 mmHg 39%

    28 May, Monday

    Time Temperature Precipitation Wind Pressure Humidity
    00:00 +25°C° 0 mm 3 mps 671 mmHg 41%
    01:00 +25°C° 0 mm 3 mps 670 mmHg 39%
    02:00 +23°C° 0 mm 4 mps 670 mmHg 37%
    03:00 +23°C° 0 mm 5 mps 669 mmHg 36%
    04:00 +23°C° 0 mm 6 mps 669 mmHg 34%
    05:00 +24°C° 0 mm 7 mps 670 mmHg 32%
    06:00 +24°C° 0 mm 7 mps 670 mmHg 30%
    07:00 +27°C° 0 mm 9 mps 670 mmHg 27%
    08:00 +29°C° 0 mm 10 mps 671 mmHg 24%
    09:00 +32°C° 0 mm 12 mps 671 mmHg 21%
    10:00 +32°C° 0 mm 11 mps 671 mmHg 20%
    11:00 +33°C° 0 mm 11 mps 671 mmHg 20%
    12:00 +34°C° 0 mm 10 mps 671 mmHg 19%
    13:00 +34°C° 0 mm 10 mps 670 mmHg 17%
    14:00 +34°C° 0 mm 9 mps 670 mmHg 15%
    15:00 +35°C° 0 mm 9 mps 670 mmHg 14%
    16:00 +34°C° 0 mm 7 mps 670 mmHg 16%
    17:00 +33°C° 0 mm 5 mps 670 mmHg 18%
    18:00 +31°C° 0 mm 3 mps 669 mmHg 20%
    19:00 +29°C° 0 mm 3 mps 669 mmHg 28%
    20:00 +27°C° 0 mm 3 mps 669 mmHg 36%
    21:00 +25°C° 0 mm 3 mps 669 mmHg 44%
    22:00 +22°C° 0 mm 3 mps 669 mmHg 52%
    23:00 +21°C° 0 mm 3 mps 669 mmHg 59%

    29 May, Tuesday

    Time Temperature Precipitation Wind Pressure Humidity
    00:00 +20°C° 0 mm 4 mps 668 mmHg 67%
    01:00 +19°C° 0 mm 4 mps 668 mmHg 70%
    02:00 +19°C° 0 mm 3 mps 668 mmHg 74%
    03:00 +18°C° 0 mm 3 mps 667 mmHg 78%
    04:00 +18°C° 0 mm 3 mps 668 mmHg 77%
    05:00 +18°C° 0 mm 3 mps 668 mmHg 77%
    06:00 +18°C° 0 mm 3 mps 668 mmHg 77%
    07:00 +19°C° 0 mm 3 mps 668 mmHg 70%
    08:00 +20°C° 0 mm 3 mps 669 mmHg 63%
    09:00 +22°C° 0 mm 3 mps 669 mmHg 56%
    10:00 +24°C° 0 mm 3 mps 669 mmHg 51%
    11:00 +25°C° 0 mm 3 mps 670 mmHg 46%
    12:00 +27°C° 0 mm 3 mps 670 mmHg 41%
    13:00 +27°C° 0 mm 3 mps 670 mmHg 39%
    14:00 +28°C° 0 mm 4 mps 670 mmHg 38%
    15:00 +28°C° 0 mm 5 mps 669 mmHg 37%
    16:00 +27°C° 0 mm 4 mps 669 mmHg 43%
    17:00 +26°C° 0 mm 4 mps 669 mmHg 49%
    18:00 +23°C° 0 mm 4 mps 669 mmHg 56%
    19:00 +22°C° 0 mm 4 mps 669 mmHg 61%
    20:00 +21°C° 0 mm 4 mps 670 mmHg 66%
    21:00 +20°C° 0 mm 3 mps 670 mmHg 71%
    22:00 +19°C° 0 mm 3 mps 670 mmHg 73%
    23:00 +19°C° 0 mm 4 mps 669 mmHg 75%

    30 May, Wednesday

    Time Temperature Precipitation Wind Pressure Humidity
    00:00 +18°C° 0 mm 4 mps 669 mmHg 77%
    01:00 +18°C° 0 mm 3 mps 669 mmHg 78%
    02:00 +18°C° 0 mm 3 mps 668 mmHg 78%
    03:00 +17°C° 0 mm 3 mps 668 mmHg 79%
    04:00 +18°C° 0 mm 3 mps 668 mmHg 77%
    05:00 +18°C° 0 mm 3 mps 669 mmHg 74%
    06:00 +18°C° 0 mm 4 mps 669 mmHg 71%
    07:00 +20°C° 0 mm 3 mps 669 mmHg 62%
    08:00 +22°C° 0 mm 3 mps 670 mmHg 53%
    09:00 +24°C° 0 mm 3 mps 670 mmHg 44%
    10:00 +26°C° 0 mm 3 mps 670 mmHg 39%
    11:00 +27°C° 0 mm 3 mps 671 mmHg 34%
    12:00 +28°C° 0 mm 3 mps 671 mmHg 30%
    13:00 +29°C° 0.1 mm 4 mps 671 mmHg 30%
    14:00 +29°C° 0.1 mm 4 mps 671 mmHg 30%
    15:00 +29°C° 0.1 mm 4 mps 670 mmHg 30%
    16:00 +28°C° 0.3 mm 5 mps 670 mmHg 37%
    17:00 +26°C° 0.3 mm 5 mps 670 mmHg 43%
    18:00 +25°C° 0.3 mm 5 mps 670 mmHg 49%
    19:00 +23°C° 0.2 mm 5 mps 670 mmHg 56%
    20:00 +21°C° 0.2 mm 4 mps 671 mmHg 63%
    21:00 +20°C° 0.2 mm 4 mps 671 mmHg 70%
    22:00 +19°C° 0.2 mm 4 mps 671 mmHg 72%
    23:00 +19°C° 0.2 mm 4 mps 670 mmHg 74%
    Show more